Vorticity
11 10 10 9 8 8 7 7 6 6 5 5 5 5 7 9 10 11 10 12 13 14 15 15 16 14 13 11 11 11 12 13 10 10 9 6 8 6 9 15 11 7 9 10 5 4 2 -5 3 17 11 4 3 -1 1 -4 -7 -2 -5 4 18 9 0 6 9 4 1 3 4 4 4 3 1 1 2 1 2 3 3 3 3 3 4 5 6 7 8 10
11 10 9 9 8 7 7 6 6 6 8 9 13 15 18 20 21 22 22 21 20 20 21 20 19 17 17 15 12 12 10 13 13 10 10 8 8 6 5 11 15 9 7 10 7 3 6 -2 -7 8 17 10 4 -2 3 5 -1 1 -4 -5 9 17 7 2 6 5 3 2 2 5 5 4 3 2 2 1 1 2 3 3 2 3 4 5 5 6 6 6
11 10 9 8 7 7 6 7 11 15 19 23 26 29 30 30 29 29 28 28 26 25 25 24 25 22 20 18 15 15 12 11 13 11 10 9 8 8 5 6 15 15 6 7 11 5 4 6 -4 -3 12 18 15 4 -2 3 3 -1 -1 -4 -2 11 12 3 5 5 3 4 3 4 5 5 4 3 3 1 2 2 3 3 2 3 3 4 4 4 4 4
10 10 9 8 7 9 13 18 23 25 28 29 30 31 30 29 29 28 27 28 27 26 26 26 28 28 25 22 20 19 16 12 12 13 11 9 9 10 8 5 10 18 12 4 10 10 2 6 3 -5 1 8 17 19 6 -0 3 1 -1 -3 -5 7 12 4 7 6 3 4 3 2 3 5 4 2 3 1 1 3 4 3 2 3 2 3 4 3 3 3
10 9 8 10 14 19 25 27 27 26 27 27 26 25 24 25 25 25 25 25 26 26 26 27 28 30 31 26 24 22 20 18 12 12 14 11 10 10 9 7 6 13 16 6 6 11 5 4 3 -2 -1 -3 3 17 19 7 -0 2 1 -4 -5 6 15 12 10 7 3 3 3 3 1 2 4 3 2 3 0 1 5 4 2 2 2 2 3 3 2 2
9 9 11 17 23 28 29 26 26 26 27 25 22 20 22 23 22 21 21 21 23 25 25 27 28 30 34 32 28 25 23 22 16 13 16 13 10 11 10 9 7 10 17 12 5 10 8 5 3 -0 4 1 -3 4 19 21 7 1 3 -2 -8 -4 7 14 17 14 7 3 3 5 4 2 2 3 2 3 2 -1 1 3 3 2 2 2 2 3 3 3
8 11 18 26 30 28 23 25 33 33 27 22 18 20 24 20 17 16 17 18 17 19 20 21 25 26 31 36 34 31 26 22 22 18 18 18 11 9 10 9 8 8 15 17 8 8 10 8 5 0 2 6 2 -3 3 18 19 7 2 2 -6 -11 -9 -8 3 19 18 9 3 2 5 6 3 3 4 2 3 2 1 2 2 3 2 2 2 4 5 4
10 16 25 30 29 21 15 25 34 33 27 18 18 24 21 14 12 15 16 15 14 13 12 10 16 18 25 35 37 40 32 21 26 22 16 23 17 8 10 9 9 7 9 18 11 7 11 9 8 4 1 6 7 2 -3 3 18 16 6 3 -1 -7 -12 -18 -16 3 20 16 7 4 2 4 3 3 4 2 3 3 1 2 2 3 3 2 2 3 4 4
14 21 29 30 25 14 12 23 23 24 27 16 21 27 15 9 11 13 13 13 15 14 11 8 10 12 19 28 34 43 36 24 28 24 13 23 24 9 9 9 9 10 7 15 14 6 9 9 9 6 -1 9 17 10 3 0 11 19 13 6 2 -1 -3 -3 -8 -11 9 20 10 7 4 3 4 4 4 2 5 4 0 1 2 3 3 3 3 2 3 2
18 25 30 29 21 12 11 22 22 23 24 17 27 26 8 9 10 7 9 10 13 14 14 13 7 9 16 19 29 40 38 31 30 27 18 26 33 16 9 11 7 11 8 11 16 8 7 8 10 11 -7 -5 19 18 4 2 9 15 18 16 6 2 3 6 6 -7 -4 13 13 9 8 8 8 8 7 2 4 4 0 1 1 2 3 2 3 2 2 2
21 25 31 27 19 15 12 20 30 28 21 19 30 21 5 9 8 7 10 11 13 13 16 18 10 9 15 14 24 35 35 34 31 27 18 18 38 31 11 11 9 8 10 9 15 11 6 6 7 18 2 -21 -1 16 8 2 9 12 14 20 13 5 6 5 8 4 -5 0 4 4 7 12 11 9 9 6 4 4 2 3 2 1 2 2 1 2 2 2
21 24 30 26 16 18 15 17 32 36 27 27 28 14 3 5 4 5 8 12 17 14 14 18 13 12 17 14 18 26 25 30 30 28 22 8 28 46 21 9 12 8 10 10 14 14 6 7 5 12 17 -7 -16 2 10 -1 -1 15 17 17 17 9 11 8 3 3 1 -1 -6 -6 2 10 12 9 10 11 6 6 4 4 5 2 1 3 3 2 2 1
21 25 28 23 17 20 18 13 25 36 33 32 26 10 3 4 3 1 2 10 18 16 13 15 13 15 20 11 11 20 18 25 32 26 26 10 9 39 29 11 15 8 9 11 11 16 5 6 10 7 17 9 -11 -8 10 4 -13 3 21 24 26 18 13 13 9 3 2 4 -6 -6 1 2 10 11 8 12 8 6 7 6 7 5 1 1 3 3 2 1
20 25 26 22 18 22 20 12 14 25 27 25 21 12 6 6 4 1 3 11 17 15 12 12 12 17 18 7 9 21 19 24 33 23 26 20 6 27 30 14 19 10 6 13 9 14 9 3 11 11 15 14 -0 -10 2 11 -9 -18 -2 15 24 23 20 17 18 12 4 7 -0 -1 5 -3 6 15 8 9 12 10 8 7 7 6 3 1 2 3 3 2
20 24 24 21 19 21 22 17 11 12 16 15 13 10 7 7 5 4 7 11 14 12 11 12 12 18 15 6 12 22 23 25 31 26 23 26 17 28 38 20 19 14 3 12 11 9 9 5 8 11 14 14 6 -5 -5 10 7 -15 -22 -7 8 14 19 17 17 18 10 10 5 1 8 0 -1 10 7 3 8 14 12 8 6 4 3 2 2 1 1 3
20 23 22 20 21 20 19 21 19 12 10 10 10 9 7 7 7 7 11 12 13 13 16 16 13 18 13 8 15 19 23 25 27 28 24 31 19 18 44 34 20 21 5 5 13 8 7 6 7 10 14 15 10 -2 -8 5 18 4 -18 -15 -2 -3 2 3 0 11 14 12 8 2 4 3 -1 3 4 -1 -4 4 11 10 6 3 3 2 2 2 1 1
19 23 22 19 24 25 20 20 23 21 16 12 11 12 10 10 10 10 12 11 13 14 15 17 14 17 13 9 16 16 21 22 23 28 25 31 13 -5 33 42 21 24 12 3 10 8 6 6 7 9 10 15 17 3 -14 -6 15 17 3 3 8 -3 1 12 3 0 10 14 12 7 4 2 -0 -0 3 2 -4 -4 3 9 8 4 4 5 4 4 5 3
18 24 24 19 24 25 21 19 20 22 22 19 17 15 13 11 10 10 9 10 14 17 17 20 17 15 13 12 15 16 20 19 21 29 26 33 21 -2 30 48 28 27 18 4 8 9 7 5 6 11 10 11 18 12 -7 -13 -2 3 3 11 19 7 2 18 21 12 13 18 16 9 6 4 -1 -1 4 4 2 0 -0 3 6 6 5 9 10 5 4 7
17 24 25 17 17 15 12 11 11 14 16 18 19 19 18 14 14 14 13 16 19 20 17 19 21 16 11 12 15 17 20 19 19 27 33 36 16 -11 13 37 28 30 24 7 5 10 8 4 5 9 9 10 13 15 6 -5 -8 -14 -13 -0 8 3 -1 4 13 16 15 20 24 15 8 9 3 -2 2 5 4 3 3 3 2 4 3 5 11 10 5 4
15 23 27 16 10 7 4 4 7 9 10 13 13 14 16 15 17 15 12 14 18 22 15 12 20 19 14 12 12 17 20 20 21 26 38 38 9 -8 17 35 28 30 26 12 8 11 9 5 8 7 7 12 12 13 13 7 -0 -14 -14 6 6 -9 -4 2 -1 3 7 10 22 25 15 9 9 4 2 6 6 2 2 6 3 1 2 0 3 8 9 7
16 20 27 20 9 3 4 5 8 10 11 14 14 12 10 6 9 9 7 6 9 19 22 17 19 20 20 15 12 17 15 18 25 28 39 38 11 6 28 35 34 35 25 15 11 9 11 10 9 9 8 13 15 14 14 11 10 -6 -21 1 19 4 -3 -1 -2 1 5 4 10 23 26 18 14 14 13 12 10 7 6 8 7 2 0 -1 1 4 7 9
16 17 23 25 16 7 7 6 6 9 10 13 16 18 18 12 8 9 10 8 5 13 25 25 22 21 20 15 15 17 11 17 28 31 41 34 -4 -10 16 22 20 28 26 19 12 7 14 15 6 6 9 12 15 17 18 11 12 10 -16 -24 5 20 11 4 6 8 8 7 3 8 18 21 19 16 18 22 17 10 7 6 10 10 4 2 6 6 4 4
15 16 19 24 21 14 11 8 6 7 9 13 16 20 27 25 15 13 14 11 9 19 30 28 26 24 18 17 18 16 12 17 28 36 42 24 -21 -27 12 24 9 12 23 21 11 6 15 20 8 2 6 10 13 14 19 14 10 20 7 -20 -15 8 16 13 10 8 8 9 8 9 10 11 16 14 10 17 20 15 12 11 16 21 19 15 11 5 3 3
13 16 17 19 20 17 13 13 11 9 11 15 16 19 31 31 17 14 16 11 10 24 35 28 27 25 16 16 18 18 15 15 31 39 35 28 -4 -18 16 35 15 9 22 23 18 9 7 17 16 8 7 8 11 13 16 15 9 16 20 2 -13 -10 5 13 10 9 10 8 7 13 16 11 10 10 7 10 15 15 17 16 16 17 16 13 10 6 4 4
10 14 18 17 17 17 16 18 15 10 9 14 14 14 27 32 21 16 14 12 6 16 31 26 25 24 15 16 19 21 15 15 39 38 31 41 9 -19 10 30 17 11 20 21 23 27 17 10 9 8 16 14 10 12 13 14 11 10 16 14 -2 -11 6 20 14 14 16 10 4 -3 0 8 9 10 12 16 17 17 19 19 16 13 10 4 5 8 8 8
8 12 17 17 16 14 15 20 18 9 4 14 18 11 20 30 30 20 11 15 8 8 27 27 24 22 14 17 21 22 15 17 40 37 36 36 -12 -27 10 21 15 16 21 15 11 29 36 28 13 -4 4 16 14 15 13 11 14 12 10 15 7 -13 -3 14 6 6 12 10 11 6 -5 -4 8 18 20 20 20 20 22 22 16 11 11 10 8 9 9 9
7 9 14 17 18 13 13 17 20 13 3 13 21 13 16 27 32 22 10 17 11 9 24 22 23 23 17 24 24 20 14 20 41 37 40 27 -25 -22 8 10 17 17 22 23 8 10 18 32 40 12 -4 5 10 16 17 11 12 16 11 13 14 -14 -24 0 5 4 12 11 13 23 21 7 4 13 13 10 7 4 8 13 16 14 14 16 14 13 12 10
6 8 10 15 18 15 13 11 17 19 8 13 23 16 15 22 29 23 14 14 11 17 22 17 29 29 21 27 20 13 11 26 47 35 37 32 -15 -23 -12 -3 19 18 23 27 12 12 2 4 33 33 15 9 6 10 17 18 12 14 15 10 16 2 -23 -15 -2 -0 7 13 15 20 28 22 7 1 -3 -5 -6 -3 3 3 9 16 18 20 17 16 17 15
6 7 8 12 16 16 15 10 12 18 13 12 20 21 18 20 26 25 21 15 9 16 18 21 36 28 21 22 8 7 13 32 51 30 27 32 3 -14 -25 -18 6 12 25 16 1 27 23 -1 7 24 31 20 11 10 9 20 19 12 16 10 12 15 -3 -14 -12 -13 -11 4 19 17 20 22 11 0 0 3 -1 1 7 1 -1 6 11 18 20 18 18 17
6 6 8 10 13 15 17 14 11 14 16 12 14 22 20 20 29 30 21 10 8 19 27 34 30 12 13 9 -1 12 18 34 44 15 12 26 23 3 -39 -32 5 13 26 8 -10 28 40 21 2 0 29 33 19 16 5 12 23 17 17 14 11 14 10 4 -4 -16 -23 -15 -4 -3 9 26 22 9 4 10 11 7 9 7 4 4 3 8 13 14 16 16
7 5 7 8 10 13 16 18 13 11 15 13 13 19 19 22 33 33 26 20 23 35 39 29 7 -5 7 6 13 30 24 32 29 4 14 26 38 25 -43 -39 11 13 24 11 -16 7 28 39 25 -13 1 25 24 25 13 7 15 18 19 15 13 14 11 13 9 -4 -16 -18 -22 -30 -20 1 14 16 8 5 9 9 9 7 4 3 1 1 2 5 9 10
8 6 6 7 8 10 13 16 16 13 11 12 15 15 17 29 35 31 36 36 30 27 17 3 -8 -1 14 16 27 32 19 31 29 12 21 12 32 47 -24 -38 3 -4 17 23 -14 -18 -11 17 43 13 -6 6 14 22 21 16 13 13 21 19 13 13 12 12 13 11 3 -4 -10 -23 -29 -27 -17 -0 8 6 10 13 13 10 7 5 2 1 -2 -2 -0 0
8 8 6 6 8 8 10 12 16 18 11 9 14 10 14 34 37 28 26 19 10 7 -3 -7 3 12 18 19 25 26 20 27 26 14 6 -11 27 61 -5 -30 2 -11 1 26 4 -10 -19 -15 13 24 17 11 9 12 11 14 16 10 17 24 19 14 13 12 12 13 11 9 6 -2 -8 -13 -16 -10 -3 -2 0 9 15 14 15 13 9 8 6 2 -0 -1
9 9 6 6 7 7 9 8 13 20 14 10 13 9 14 31 36 27 15 4 0 4 -3 -2 16 19 13 13 21 36 26 3 5 17 7 -6 30 58 8 -19 4 -9 -14 14 18 10 4 -9 -13 -0 15 14 10 15 10 7 10 7 6 14 20 18 13 14 14 12 11 13 13 10 6 -0 -6 -5 -2 -6 -14 -7 4 6 9 12 12 13 15 13 11 8
10 10 7 8 7 5 8 7 10 16 13 16 15 8 12 26 37 32 17 7 3 2 1 8 23 21 13 11 12 29 31 2 -2 15 12 6 29 50 21 -9 5 4 -18 -8 9 10 14 12 -2 -9 2 9 6 8 12 9 8 10 9 6 11 17 16 15 16 14 12 13 12 12 13 9 3 1 2 -6 -16 -14 -7 -8 -8 -4 0 5 7 10 12 13
10 10 9 10 7 6 7 5 10 10 9 20 17 6 11 19 34 41 22 8 3 -1 3 11 18 14 10 15 10 10 25 24 12 3 0 6 25 46 27 -7 7 19 -9 -17 -0 4 5 13 12 2 2 12 10 5 8 9 6 8 11 9 8 12 13 15 19 17 12 12 12 11 13 13 10 10 9 -2 -10 -8 -4 -4 -7 -9 -8 -5 -5 -5 -2 2
8 10 10 10 9 9 7 4 9 7 6 18 15 8 14 11 22 44 35 13 0 -5 -3 0 10 16 9 11 15 8 12 28 25 9 4 3 13 40 32 0 9 25 3 -12 -3 4 -0 1 8 6 3 9 12 12 11 8 6 6 7 8 9 10 9 8 13 17 14 11 11 11 14 19 18 20 20 10 3 2 2 7 8 4 1 -2 -5 -6 -7 -6
7 9 9 10 11 10 8 7 8 5 5 13 11 9 16 10 10 33 44 29 5 -7 -5 -6 -2 13 12 8 16 14 8 23 31 18 13 9 7 28 34 11 7 19 16 -1 -7 2 2 -5 -0 1 -0 4 6 8 11 10 10 9 7 8 7 9 11 9 9 13 14 12 10 7 8 14 17 18 17 13 11 7 3 5 10 10 9 7 5 2 -1 -2
5 8 7 8 13 11 8 11 7 3 7 10 7 10 15 13 7 15 36 44 24 -1 -9 -6 -3 4 8 7 13 18 12 16 25 22 20 18 13 23 32 21 8 9 17 12 -0 3 5 -2 -1 -1 -3 -3 -3 -2 -1 3 8 7 6 7 6 6 8 9 10 10 10 10 10 8 2 1 5 9 13 13 13 11 7 5 7 11 12 11 12 12 9 8
5 6 6 7 11 10 9 13 9 5 9 7 4 9 12 13 12 9 18 35 40 23 -3 -10 -4 -1 4 3 9 26 23 9 14 24 22 15 12 21 27 25 21 13 12 14 8 7 10 6 1 1 1 -2 -3 0 -1 -2 1 4 5 6 6 6 5 6 8 8 9 9 9 10 8 6 6 9 11 10 10 10 7 6 5 6 9 11 12 15 15 14
6 5 6 6 8 10 9 12 12 8 9 6 5 9 7 9 14 12 10 15 29 39 27 9 -4 -10 -4 -1 5 29 26 1 7 25 25 18 12 13 15 19 26 24 17 17 15 10 12 14 11 7 8 8 7 7 7 5 4 3 4 5 6 6 6 6 6 5 7 8 7 7 9 10 9 10 12 11 11 11 8 9 7 5 9 14 15 13 13 13
7 5 6 5 5 8 9 9 12 12 10 8 7 8 6 7 10 11 13 12 11 21 31 32 22 8 6 1 2 25 24 -3 -2 13 16 22 21 12 7 8 15 19 18 20 21 17 11 13 17 13 8 11 14 11 9 9 10 8 7 7 8 7 7 7 8 8 7 7 7 6 8 10 6 7 10 10 10 11 9 10 10 8 7 5 3 3 4 6
9 6 5 5 4 7 7 7 10 12 12 12 10 8 7 8 7 6 10 13 11 11 13 19 26 25 23 14 3 15 25 6 -5 1 4 11 20 20 14 6 2 5 10 14 18 21 18 12 16 19 14 9 10 11 11 9 9 10 9 8 8 8 9 8 8 9 8 8 8 7 9 11 7 7 9 9 11 10 7 7 7 8 6 2 1 4 5 6
11 8 5 5 5 5 5 5 7 8 10 12 12 11 10 8 7 7 8 8 8 13 13 10 14 16 20 23 13 10 20 15 0 -2 2 2 6 15 20 18 12 4 3 5 5 11 16 12 12 20 22 19 16 15 15 15 14 13 12 12 11 10 11 12 11 12 11 10 8 9 12 11 9 10 10 10 13 12 9 6 4 5 6 5 6 7 8 9
13 10 6 5 4 5 5 3 3 3 5 9 10 12 12 10 8 7 8 8 5 7 10 10 13 13 12 18 20 13 13 16 11 4 5 7 2 -0 4 11 15 14 13 12 6 4 7 7 7 10 12 15 17 16 16 17 18 18 16 16 16 15 15 14 13 14 14 13 10 11 15 13 9 9 9 10 13 13 13 11 8 7 7 8 7 7 8 9
14 11 8 6 4 4 5 3 3 2 3 6 7 10 12 11 10 9 8 8 7 6 7 7 8 12 12 13 17 17 13 13 15 13 11 14 10 4 2 1 2 8 11 12 11 8 6 6 7 8 6 6 7 8 9 9 9 12 13 13 14 14 13 13 12 12 12 14 11 9 13 14 10 8 8 8 9 10 13 14 12 11 9 9 9 7 7 7
13 12 11 10 8 7 7 6 6 5 4 6 6 7 11 11 10 10 10 10 9 7 7 7 6 6 9 11 11 14 15 14 15 16 15 15 14 12 13 12 10 11 11 10 10 9 7 6 6 6 6 6 6 5 5 5 5 5 6 7 8 8 8 8 9 9 9 10 10 7 8 12 11 9 8 8 8 8 9 10 10 10 8 6 5 4 4 3
10 11 12 12 10 10 11 10 9 8 7 8 7 6 8 10 10 9 9 10 11 11 8 7 7 6 5 8 9 8 11 12 13 14 14 14 15 15 14 15 15 16 16 15 15 14 13 12 10 9 8 7 7 6 6 5 5 4 4 4 4 4 5 5 5 5 5 6 7 6 4 6 8 7 7 8 8 7 7 7 7 7 7 7 6 5 5 3
10 9 10 11 11 11 12 11 11 11 10 9 9 9 7 7 9 8 8 10 9 11 13 10 8 9 6 5 7 8 8 9 9 10 10 10 12 12 13 14 14 14 15 15 15 16 17 17 16 17 16 16 15 14 14 13 12 11 10 9 9 9 9 8 8 7 6 6 7 7 6 6 6 7 7 8 7 7 8 9 9 9 8 8 8 7 6 6
10 9 10 10 9 10 11 11 11 12 12 11 11 11 10 7 8 7 6 8 7 7 11 12 9 11 11 7 5 7 8 7 8 8 8 8 8 8 8 9 10 10 11 13 12 12 13 14 15 16 16 17 17 17 17 18 18 18 18 19 19 19 19 18 18 17 17 17 17 16 15 14 14 14 13 12 11 11 10 10 11 11 10 10 10 10 10 10
10 9 11 11 9 10 11 11 12 12 12 13 12 12 12 10 10 9 6 4 5 5 7 10 11 11 11 10 9 9 8 7 8 9 8 7 8 9 8 8 8 7 6 7 8 8 8 8 8 10 12 12 12 12 13 13 13 14 15 15 16 16 16 17 17 17 17 18 18 18 17 18 19 18 17 17 16 15 15 14 14 15 15 15 15 16 16 17
11 9 11 12 9 10 11 10 12 14 12 13 13 12 13 12 11 12 11 7 6 6 6 7 9 10 10 11 10 10 10 10 9 9 9 8 7 7 7 7 7 8 8 7 7 7 7 7 6 6 7 7 7 7 7 7 8 8 8 8 8 8 8 8 8 9 9 9 9 9 9 10 10 10 10 11 11 11 11 11 11 12 12 13 13 14 14 14
Height
5685 5681 5678 5675 5671 5668 5664 5661 5657 5654 5651 5648 5646 5644 5642 5640 5639 5639 5638 5638 5638 5640 5642 5644 5646 5649 5652 5655 5659 5664 5669 5674 5679 5684 5695 5704 5705 5709 5714 5718 5723 5727 5732 5737 5743 5748 5753 5758 5763 5766 5769 5773 5776 5780 5784 5787 5791 5792 5795 5798 5802 5808 5813 5817 5820 5821 5822 5824 5825 5826 5830 5831 5833 5835 5837 5838 5840 5841 5843 5844 5845 5846 5848 5849 5851 5852 5853 5853
5680 5676 5672 5668 5665 5660 5656 5652 5648 5644 5641 5638 5635 5633 5631 5629 5628 5628 5628 5628 5628 5629 5630 5633 5635 5638 5641 5644 5649 5654 5659 5664 5670 5680 5690 5693 5694 5701 5705 5709 5716 5720 5725 5731 5736 5741 5746 5752 5756 5760 5764 5768 5772 5776 5778 5783 5786 5789 5792 5795 5799 5805 5811 5814 5816 5817 5819 5821 5822 5823 5826 5829 5830 5832 5835 5836 5837 5839 5840 5841 5843 5845 5846 5847 5848 5849 5849 5850
5675 5670 5666 5662 5657 5652 5648 5643 5637 5633 5630 5626 5624 5622 5620 5619 5618 5618 5617 5618 5618 5619 5619 5621 5624 5627 5630 5634 5639 5643 5650 5654 5663 5676 5680 5680 5687 5694 5696 5702 5708 5712 5717 5723 5729 5734 5740 5745 5750 5755 5759 5763 5767 5771 5774 5777 5782 5786 5788 5791 5797 5803 5807 5810 5811 5813 5815 5817 5819 5821 5823 5826 5828 5829 5831 5833 5834 5836 5837 5839 5841 5842 5844 5845 5846 5846 5846 5847
5670 5665 5660 5655 5649 5643 5638 5632 5627 5622 5619 5616 5614 5612 5611 5610 5610 5609 5609 5609 5610 5610 5611 5611 5613 5616 5619 5624 5628 5633 5639 5645 5658 5668 5667 5672 5680 5683 5687 5694 5699 5704 5710 5717 5721 5727 5734 5739 5745 5751 5754 5758 5762 5765 5768 5773 5778 5782 5785 5789 5795 5800 5803 5805 5807 5809 5811 5813 5815 5817 5820 5822 5824 5826 5828 5830 5832 5834 5835 5836 5838 5840 5841 5843 5843 5843 5844 5845
5664 5659 5653 5647 5640 5634 5628 5622 5617 5613 5610 5608 5606 5604 5604 5603 5603 5602 5602 5603 5603 5603 5604 5604 5605 5606 5610 5614 5618 5623 5629 5638 5652 5656 5657 5664 5669 5673 5680 5686 5690 5696 5703 5709 5714 5721 5728 5733 5742 5747 5749 5753 5756 5759 5764 5770 5774 5778 5783 5788 5792 5796 5798 5800 5802 5803 5806 5808 5811 5814 5816 5818 5821 5823 5825 5827 5828 5831 5832 5834 5836 5837 5839 5840 5841 5841 5841 5843
5658 5652 5646 5639 5631 5625 5619 5614 5609 5605 5603 5601 5599 5598 5597 5597 5597 5597 5597 5597 5597 5598 5597 5598 5598 5599 5602 5605 5608 5613 5620 5632 5642 5644 5648 5654 5657 5665 5671 5676 5682 5690 5697 5704 5710 5716 5723 5729 5736 5741 5745 5749 5752 5756 5762 5766 5769 5773 5779 5784 5788 5791 5793 5795 5798 5799 5801 5804 5807 5809 5812 5815 5817 5820 5822 5824 5825 5827 5829 5831 5833 5835 5836 5837 5838 5839 5840 5841
5652 5645 5638 5631 5623 5617 5612 5607 5602 5598 5596 5595 5594 5593 5593 5593 5593 5593 5593 5593 5593 5593 5593 5593 5593 5594 5595 5597 5601 5604 5612 5625 5631 5633 5638 5641 5647 5655 5660 5667 5675 5683 5691 5699 5705 5711 5718 5724 5730 5736 5741 5744 5748 5754 5758 5761 5764 5768 5774 5780 5784 5786 5788 5791 5793 5795 5798 5800 5803 5805 5808 5811 5814 5816 5819 5821 5822 5824 5826 5829 5831 5832 5834 5835 5836 5837 5837 5838
5646 5638 5631 5623 5617 5611 5606 5601 5596 5593 5591 5590 5589 5589 5589 5589 5589 5589 5589 5589 5589 5589 5589 5589 5589 5590 5590 5591 5594 5597 5608 5618 5619 5622 5626 5629 5637 5645 5651 5660 5666 5674 5684 5692 5699 5705 5712 5718 5725 5733 5737 5740 5745 5750 5754 5756 5758 5763 5769 5775 5779 5781 5784 5786 5788 5791 5794 5797 5799 5802 5804 5807 5810 5812 5815 5818 5819 5820 5823 5826 5828 5830 5831 5833 5834 5834 5835 5836
5640 5632 5624 5618 5612 5607 5602 5597 5592 5589 5587 5586 5585 5585 5585 5586 5586 5586 5586 5586 5585 5585 5585 5585 5585 5586 5586 5587 5588 5593 5603 5607 5606 5611 5617 5621 5628 5635 5643 5651 5658 5667 5677 5685 5692 5697 5705 5714 5722 5729 5734 5738 5741 5745 5750 5751 5755 5761 5766 5771 5774 5776 5778 5781 5784 5787 5789 5792 5795 5798 5801 5803 5806 5808 5812 5815 5816 5817 5820 5822 5825 5827 5829 5830 5832 5832 5833 5834
5635 5627 5619 5613 5608 5603 5598 5593 5589 5586 5584 5583 5582 5582 5583 5583 5583 5583 5583 5583 5582 5582 5582 5582 5582 5582 5582 5583 5584 5590 5596 5595 5596 5603 5610 5614 5619 5626 5635 5643 5652 5660 5669 5678 5685 5691 5702 5711 5717 5722 5729 5733 5736 5741 5746 5748 5753 5759 5762 5766 5768 5770 5773 5776 5779 5781 5784 5787 5791 5794 5797 5800 5802 5804 5809 5812 5813 5814 5817 5819 5822 5824 5826 5828 5829 5830 5831 5831
5630 5623 5616 5610 5605 5600 5595 5590 5586 5583 5581 5580 5579 5580 5581 5581 5581 5581 5580 5580 5579 5579 5579 5578 5578 5578 5579 5579 5582 5587 5587 5585 5587 5594 5602 5607 5610 5618 5627 5636 5645 5654 5663 5672 5680 5688 5698 5705 5710 5715 5721 5726 5731 5737 5740 5744 5750 5754 5757 5759 5761 5764 5767 5770 5774 5777 5780 5783 5787 5790 5792 5795 5798 5801 5807 5810 5811 5811 5813 5816 5818 5821 5823 5825 5826 5827 5828 5829
5627 5619 5613 5607 5602 5598 5593 5588 5583 5580 5578 5577 5577 5578 5579 5579 5579 5579 5578 5577 5576 5576 5576 5575 5575 5575 5575 5577 5580 5580 5577 5576 5581 5589 5596 5601 5605 5610 5620 5631 5640 5649 5658 5667 5676 5683 5691 5696 5702 5709 5714 5720 5726 5731 5734 5741 5746 5749 5752 5753 5755 5759 5761 5765 5770 5773 5776 5779 5783 5786 5788 5791 5795 5800 5805 5807 5807 5808 5809 5812 5814 5817 5819 5821 5822 5824 5825 5825
5625 5617 5610 5605 5600 5595 5591 5587 5582 5579 5576 5575 5576 5576 5577 5577 5577 5576 5576 5575 5573 5573 5572 5572 5572 5572 5572 5575 5575 5572 5571 5573 5579 5586 5591 5597 5603 5606 5615 5627 5635 5644 5653 5662 5671 5678 5684 5690 5696 5703 5708 5715 5722 5726 5731 5736 5740 5744 5747 5748 5751 5753 5755 5761 5766 5770 5772 5775 5779 5782 5784 5789 5792 5797 5801 5802 5803 5804 5805 5807 5809 5812 5814 5816 5818 5820 5821 5822
5623 5615 5609 5603 5599 5594 5590 5586 5582 5579 5576 5575 5575 5575 5576 5575 5575 5574 5573 5572 5570 5570 5569 5569 5569 5568 5569 5571 5570 5568 5570 5573 5577 5582 5586 5593 5600 5602 5611 5622 5629 5639 5648 5657 5665 5671 5678 5684 5690 5697 5703 5709 5716 5722 5727 5730 5734 5739 5742 5744 5745 5747 5753 5759 5762 5766 5768 5771 5776 5777 5780 5786 5789 5793 5796 5797 5799 5801 5802 5803 5805 5807 5810 5812 5814 5815 5817 5818
5621 5614 5608 5602 5598 5593 5589 5585 5582 5579 5577 5576 5575 5575 5574 5573 5573 5572 5570 5569 5568 5567 5566 5566 5566 5565 5566 5567 5566 5566 5569 5572 5575 5578 5583 5590 5597 5601 5607 5616 5625 5634 5643 5652 5659 5666 5672 5677 5683 5691 5697 5704 5710 5715 5720 5723 5728 5733 5736 5738 5740 5746 5751 5755 5758 5762 5765 5767 5771 5772 5776 5782 5786 5790 5792 5793 5795 5797 5798 5800 5801 5803 5805 5807 5809 5811 5813 5814
5620 5613 5607 5602 5597 5593 5589 5585 5582 5579 5577 5575 5574 5573 5572 5571 5570 5569 5568 5566 5565 5564 5563 5563 5562 5563 5563 5563 5563 5565 5567 5569 5571 5574 5580 5587 5595 5600 5603 5611 5622 5630 5638 5647 5654 5661 5666 5671 5678 5685 5692 5698 5703 5709 5715 5718 5721 5726 5731 5733 5738 5744 5747 5751 5754 5758 5760 5763 5765 5768 5773 5778 5782 5786 5787 5788 5790 5793 5795 5796 5798 5799 5801 5803 5804 5806 5808 5809
5620 5613 5607 5602 5597 5593 5589 5585 5582 5579 5577 5575 5573 5572 5570 5569 5568 5566 5565 5563 5562 5561 5560 5560 5559 5560 5560 5560 5561 5562 5564 5567 5569 5572 5578 5584 5592 5599 5602 5608 5619 5626 5635 5643 5649 5655 5660 5666 5673 5678 5685 5691 5697 5705 5709 5711 5715 5722 5727 5731 5736 5740 5743 5747 5751 5754 5756 5759 5762 5765 5769 5774 5778 5781 5783 5784 5785 5788 5791 5792 5794 5796 5797 5799 5800 5802 5803 5804
5620 5613 5607 5603 5598 5593 5589 5585 5582 5579 5576 5574 5572 5571 5569 5567 5566 5564 5562 5561 5559 5558 5557 5556 5556 5557 5557 5557 5558 5560 5562 5565 5567 5571 5576 5582 5591 5599 5602 5606 5615 5623 5632 5640 5645 5650 5656 5663 5668 5672 5679 5684 5690 5697 5702 5708 5715 5720 5725 5729 5734 5737 5739 5743 5746 5750 5753 5755 5758 5761 5765 5770 5773 5775 5778 5778 5779 5782 5785 5788 5790 5791 5793 5794 5795 5797 5798 5799
5621 5614 5608 5603 5599 5595 5591 5587 5583 5579 5576 5574 5571 5570 5568 5566 5564 5562 5560 5558 5557 5555 5554 5554 5554 5554 5554 5555 5557 5558 5560 5562 5565 5569 5575 5582 5590 5598 5601 5604 5612 5620 5628 5635 5642 5647 5652 5657 5660 5665 5672 5678 5686 5694 5701 5708 5714 5719 5723 5726 5729 5733 5737 5740 5743 5746 5748 5750 5753 5757 5761 5765 5767 5769 5771 5773 5774 5777 5781 5783 5785 5787 5789 5790 5791 5792 5793 5794
5621 5614 5608 5604 5600 5596 5592 5588 5584 5580 5577 5574 5571 5569 5566 5564 5563 5561 5559 5557 5555 5553 5552 5551 5551 5551 5552 5553 5555 5557 5558 5560 5564 5567 5573 5580 5589 5597 5601 5603 5610 5618 5624 5631 5638 5645 5649 5651 5655 5663 5672 5680 5687 5694 5700 5705 5711 5716 5720 5722 5725 5729 5732 5735 5739 5742 5744 5746 5750 5753 5757 5760 5762 5764 5765 5768 5770 5773 5776 5778 5780 5782 5784 5785 5786 5787 5787 5788
5622 5615 5609 5604 5601 5597 5593 5589 5585 5581 5577 5574 5571 5568 5565 5563 5561 5559 5557 5555 5553 5551 5550 5549 5548 5549 5550 5552 5553 5555 5557 5559 5562 5566 5571 5578 5587 5596 5599 5602 5608 5616 5622 5628 5635 5641 5643 5647 5656 5667 5675 5681 5686 5690 5695 5702 5707 5712 5716 5720 5724 5725 5728 5732 5735 5737 5740 5743 5746 5749 5752 5755 5758 5759 5760 5763 5766 5768 5770 5772 5775 5777 5778 5780 5781 5780 5780 5780
5623 5616 5610 5605 5601 5597 5594 5590 5586 5581 5577 5574 5570 5567 5564 5562 5560 5558 5556 5553 5551 5549 5547 5546 5546 5547 5548 5550 5552 5554 5555 5558 5560 5564 5570 5577 5585 5592 5596 5600 5608 5615 5621 5627 5632 5636 5640 5648 5659 5667 5672 5676 5682 5686 5692 5698 5703 5708 5714 5719 5721 5722 5727 5730 5731 5733 5737 5740 5743 5746 5749 5752 5753 5754 5756 5758 5761 5762 5764 5767 5769 5771 5773 5773 5771 5770 5770 5771
5624 5618 5611 5606 5602 5598 5594 5590 5586 5582 5578 5574 5570 5566 5563 5560 5558 5556 5554 5552 5550 5548 5545 5544 5544 5545 5547 5549 5550 5552 5554 5556 5559 5563 5569 5576 5583 5590 5595 5601 5609 5615 5620 5625 5631 5635 5640 5649 5657 5663 5668 5674 5678 5682 5688 5693 5699 5705 5711 5715 5717 5720 5724 5726 5728 5731 5733 5737 5740 5744 5747 5748 5749 5751 5753 5753 5756 5758 5760 5763 5764 5765 5765 5762 5759 5761 5765 5767
5625 5619 5613 5607 5603 5599 5595 5591 5587 5583 5579 5574 5570 5566 5562 5559 5557 5555 5553 5551 5549 5546 5544 5543 5544 5544 5546 5548 5550 5552 5554 5556 5558 5562 5568 5575 5583 5591 5597 5602 5609 5615 5620 5625 5631 5636 5642 5649 5655 5660 5666 5670 5674 5678 5684 5689 5695 5700 5706 5712 5715 5718 5720 5722 5726 5728 5730 5734 5737 5740 5742 5743 5745 5748 5749 5750 5752 5754 5755 5757 5756 5755 5754 5752 5753 5758 5763 5765
5627 5621 5614 5609 5604 5600 5596 5592 5588 5584 5579 5575 5570 5566 5562 5559 5556 5554 5553 5551 5549 5546 5544 5544 5544 5544 5546 5548 5550 5552 5554 5556 5559 5563 5568 5576 5584 5591 5596 5602 5609 5615 5620 5626 5631 5636 5642 5648 5653 5658 5663 5667 5671 5675 5680 5686 5691 5696 5701 5708 5712 5715 5717 5719 5723 5725 5727 5730 5733 5737 5738 5739 5742 5744 5745 5747 5748 5749 5750 5748 5746 5745 5747 5749 5752 5756 5760 5762
5628 5622 5616 5610 5605 5601 5597 5593 5589 5585 5580 5576 5571 5567 5563 5559 5556 5554 5553 5551 5549 5547 5545 5544 5544 5545 5546 5548 5550 5552 5555 5557 5560 5563 5569 5576 5583 5589 5595 5603 5610 5615 5620 5627 5632 5637 5642 5646 5651 5656 5661 5666 5670 5673 5678 5682 5687 5691 5697 5703 5708 5711 5714 5716 5719 5722 5724 5726 5730 5733 5734 5736 5739 5740 5742 5742 5744 5745 5742 5738 5738 5741 5745 5747 5750 5753 5755 5756
5630 5624 5618 5612 5607 5603 5598 5594 5590 5586 5582 5577 5572 5567 5563 5559 5556 5554 5553 5551 5550 5548 5547 5546 5546 5546 5548 5549 5551 5554 5556 5559 5561 5564 5570 5577 5583 5589 5596 5603 5610 5615 5620 5626 5631 5636 5640 5644 5648 5653 5659 5663 5667 5671 5675 5680 5684 5688 5693 5699 5703 5707 5710 5713 5716 5719 5722 5724 5726 5727 5729 5732 5735 5737 5737 5738 5739 5737 5732 5731 5736 5740 5742 5744 5746 5748 5749 5751
5631 5626 5620 5615 5609 5604 5600 5596 5591 5587 5583 5578 5573 5568 5564 5559 5556 5555 5553 5551 5550 5550 5548 5548 5548 5548 5549 5551 5553 5556 5558 5560 5562 5566 5571 5578 5584 5590 5597 5604 5610 5616 5621 5627 5631 5635 5639 5643 5647 5652 5657 5661 5665 5669 5673 5678 5681 5684 5689 5695 5699 5702 5705 5709 5712 5715 5718 5720 5721 5723 5725 5728 5731 5732 5732 5733 5732 5726 5724 5730 5736 5737 5738 5740 5742 5743 5743 5744
5633 5627 5622 5617 5611 5606 5602 5597 5593 5589 5584 5579 5574 5569 5565 5561 5558 5556 5553 5552 5552 5551 5551 5550 5550 5551 5552 5554 5557 5559 5560 5562 5564 5568 5574 5580 5587 5592 5598 5604 5611 5617 5622 5627 5632 5635 5639 5643 5648 5651 5655 5658 5663 5667 5672 5675 5678 5682 5687 5692 5695 5699 5701 5705 5708 5711 5714 5716 5717 5719 5721 5723 5726 5727 5728 5727 5723 5720 5725 5731 5732 5733 5734 5735 5737 5738 5738 5738
5634 5629 5624 5619 5614 5609 5604 5600 5595 5591 5587 5582 5577 5572 5568 5564 5560 5557 5554 5553 5554 5554 5553 5553 5554 5555 5556 5558 5560 5561 5562 5564 5568 5573 5578 5583 5588 5593 5598 5604 5610 5615 5620 5625 5630 5633 5637 5642 5646 5649 5652 5656 5661 5665 5670 5673 5676 5680 5684 5687 5692 5695 5698 5701 5704 5707 5710 5712 5714 5716 5717 5720 5722 5722 5722 5720 5718 5719 5725 5727 5727 5729 5730 5730 5731 5732 5733 5734
5636 5631 5626 5622 5617 5612 5607 5602 5597 5593 5590 5585 5580 5575 5571 5568 5564 5559 5556 5555 5556 5556 5556 5557 5557 5558 5560 5562 5563 5564 5565 5568 5572 5576 5581 5586 5591 5595 5598 5603 5608 5613 5618 5623 5628 5632 5636 5640 5643 5647 5650 5655 5659 5662 5667 5670 5673 5677 5680 5684 5688 5691 5694 5697 5699 5703 5705 5707 5711 5713 5714 5717 5718 5714 5714 5716 5716 5717 5721 5722 5723 5724 5725 5726 5726 5727 5728 5729
5637 5633 5628 5624 5619 5614 5610 5605 5600 5596 5592 5589 5584 5578 5575 5573 5567 5562 5559 5559 5559 5560 5560 5560 5561 5562 5563 5564 5566 5567 5569 5572 5575 5579 5583 5588 5592 5596 5599 5603 5608 5613 5617 5622 5626 5630 5635 5638 5641 5646 5650 5654 5657 5660 5664 5667 5671 5675 5677 5681 5685 5687 5690 5692 5694 5699 5702 5704 5708 5711 5713 5715 5712 5708 5709 5713 5714 5714 5716 5717 5719 5720 5720 5721 5722 5722 5724 5724
5639 5634 5630 5626 5621 5617 5612 5608 5604 5599 5595 5592 5586 5581 5581 5578 5570 5566 5566 5565 5564 5564 5564 5565 5566 5567 5567 5567 5569 5571 5572 5575 5579 5583 5587 5590 5593 5596 5600 5604 5608 5613 5618 5622 5626 5630 5634 5637 5640 5644 5648 5651 5655 5658 5662 5665 5669 5672 5675 5677 5680 5683 5686 5688 5691 5696 5699 5701 5704 5707 5710 5710 5706 5703 5706 5709 5709 5710 5712 5713 5714 5715 5715 5716 5717 5718 5718 5719
5640 5636 5632 5628 5624 5620 5615 5611 5607 5601 5599 5594 5587 5586 5587 5580 5572 5572 5572 5570 5569 5569 5569 5570 5571 5571 5571 5572 5573 5575 5577 5579 5583 5586 5589 5591 5594 5598 5602 5605 5609 5614 5618 5622 5626 5629 5632 5636 5639 5643 5646 5650 5653 5657 5660 5664 5667 5670 5672 5675 5677 5680 5684 5686 5689 5693 5696 5698 5701 5703 5704 5704 5702 5701 5703 5705 5705 5706 5708 5709 5709 5710 5711 5711 5712 5713 5713 5714
5642 5638 5634 5630 5626 5622 5618 5614 5609 5606 5603 5597 5592 5595 5591 5581 5578 5578 5576 5575 5575 5574 5574 5574 5575 5575 5576 5577 5578 5579 5581 5583 5585 5588 5591 5594 5596 5600 5604 5608 5611 5615 5618 5622 5626 5629 5632 5636 5639 5643 5646 5649 5653 5656 5659 5663 5666 5668 5671 5673 5675 5678 5681 5684 5687 5690 5692 5695 5697 5698 5698 5698 5699 5699 5701 5702 5700 5700 5703 5705 5705 5705 5705 5706 5707 5707 5708 5708
5643 5640 5636 5632 5628 5624 5621 5617 5613 5610 5606 5600 5598 5600 5593 5585 5584 5583 5580 5580 5580 5579 5579 5579 5579 5580 5581 5582 5582 5584 5586 5588 5589 5591 5594 5596 5599 5602 5606 5610 5613 5616 5620 5623 5626 5629 5633 5636 5639 5643 5646 5649 5652 5655 5659 5662 5664 5667 5670 5672 5673 5676 5679 5681 5683 5686 5689 5691 5693 5693 5692 5693 5695 5695 5697 5699 5696 5695 5697 5699 5701 5701 5701 5701 5701 5701 5702 5702
5645 5642 5638 5634 5631 5627 5624 5620 5616 5613 5609 5604 5603 5601 5595 5591 5589 5586 5585 5585 5584 5584 5584 5584 5584 5584 5585 5586 5586 5588 5589 5591 5592 5595 5597 5599 5602 5604 5608 5612 5615 5618 5621 5624 5627 5630 5633 5636 5639 5643 5646 5649 5652 5655 5657 5660 5662 5665 5668 5669 5671 5674 5676 5678 5680 5683 5686 5688 5689 5689 5688 5689 5690 5690 5692 5694 5693 5692 5692 5692 5695 5697 5697 5697 5696 5696 5696 5696
5647 5644 5640 5637 5633 5629 5626 5622 5619 5617 5613 5608 5607 5603 5598 5596 5594 5591 5590 5589 5589 5589 5588 5589 5589 5588 5589 5590 5590 5591 5592 5593 5595 5597 5600 5602 5604 5607 5610 5613 5616 5619 5622 5625 5628 5631 5633 5636 5640 5643 5645 5648 5651 5654 5656 5659 5661 5663 5665 5667 5669 5671 5673 5676 5677 5679 5682 5684 5685 5686 5685 5684 5683 5683 5686 5689 5690 5689 5688 5687 5688 5690 5691 5691 5691 5691 5691 5691
5649 5645 5642 5639 5635 5632 5629 5625 5622 5620 5616 5612 5611 5607 5603 5600 5598 5596 5595 5593 5593 5593 5593 5593 5593 5593 5593 5594 5594 5594 5595 5596 5597 5599 5602 5604 5607 5609 5612 5615 5618 5621 5624 5627 5629 5631 5634 5637 5640 5642 5645 5647 5650 5652 5654 5657 5659 5661 5663 5664 5667 5669 5671 5672 5674 5676 5679 5680 5681 5682 5680 5678 5677 5679 5683 5685 5686 5685 5684 5683 5683 5683 5683 5684 5684 5685 5685 5685
5650 5647 5644 5641 5638 5634 5631 5627 5625 5622 5618 5616 5614 5610 5607 5605 5603 5601 5599 5598 5597 5597 5597 5597 5597 5597 5597 5597 5597 5597 5598 5600 5600 5602 5604 5606 5609 5611 5614 5617 5620 5623 5626 5628 5630 5632 5635 5637 5640 5642 5644 5646 5649 5651 5653 5654 5656 5659 5661 5662 5664 5666 5668 5669 5671 5673 5675 5675 5676 5676 5674 5673 5674 5677 5680 5681 5681 5681 5680 5678 5678 5677 5677 5677 5677 5677 5678 5678
5651 5649 5646 5643 5640 5636 5633 5630 5627 5624 5622 5620 5617 5614 5612 5610 5607 5605 5603 5602 5602 5601 5601 5601 5601 5601 5601 5601 5601 5601 5602 5603 5604 5605 5607 5609 5611 5614 5616 5619 5621 5624 5626 5628 5631 5633 5635 5637 5639 5641 5643 5645 5647 5649 5651 5653 5654 5656 5658 5659 5661 5663 5665 5666 5668 5669 5671 5671 5672 5671 5669 5670 5672 5673 5675 5676 5676 5676 5675 5674 5673 5671 5671 5671 5671 5670 5670 5670
5652 5650 5647 5645 5642 5639 5636 5633 5630 5627 5625 5622 5620 5618 5616 5614 5611 5609 5608 5606 5606 5605 5605 5604 5604 5605 5605 5605 5605 5605 5606 5607 5607 5608 5610 5611 5613 5616 5618 5620 5622 5625 5627 5629 5631 5633 5635 5637 5638 5640 5642 5644 5646 5647 5649 5651 5652 5654 5655 5656 5658 5660 5661 5663 5664 5665 5666 5666 5667 5667 5664 5666 5669 5669 5669 5671 5671 5670 5669 5668 5668 5667 5666 5665 5665 5664 5662 5662
5653 5651 5649 5646 5643 5641 5638 5635 5632 5630 5627 5625 5623 5621 5619 5617 5615 5614 5612 5610 5609 5609 5608 5607 5607 5607 5608 5608 5608 5609 5609 5610 5611 5612 5613 5614 5616 5618 5620 5621 5623 5625 5627 5629 5631 5633 5635 5637 5638 5640 5642 5643 5645 5646 5648 5649 5650 5651 5652 5654 5655 5656 5658 5659 5660 5661 5661 5661 5663 5662 5659 5662 5665 5665 5664 5664 5664 5664 5664 5662 5661 5661 5660 5659 5657 5656 5656 5654
5654 5652 5650 5647 5645 5643 5640 5637 5635 5632 5630 5628 5625 5623 5622 5620 5619 5617 5615 5614 5613 5612 5611 5611 5610 5610 5610 5610 5611 5612 5612 5613 5614 5615 5616 5617 5619 5620 5622 5623 5625 5626 5628 5630 5631 5633 5635 5636 5638 5639 5641 5642 5644 5645 5646 5647 5648 5649 5650 5651 5652 5653 5654 5656 5656 5657 5657 5658 5659 5657 5656 5659 5661 5659 5658 5658 5658 5658 5658 5657 5655 5654 5653 5652 5650 5649 5648 5647
5655 5653 5651 5649 5646 5644 5642 5639 5637 5635 5632 5630 5628 5626 5624 5622 5621 5619 5618 5617 5616 5615 5614 5614 5613 5613 5613 5613 5613 5614 5615 5616 5616 5617 5619 5620 5621 5622 5623 5625 5626 5628 5629 5630 5632 5633 5635 5636 5637 5639 5640 5641 5642 5644 5645 5645 5647 5647 5648 5649 5650 5651 5652 5652 5653 5653 5654 5655 5655 5654 5653 5654 5655 5654 5653 5653 5653 5653 5652 5651 5650 5648 5646 5645 5644 5642 5641 5640
5656 5654 5652 5650 5648 5645 5643 5641 5639 5637 5635 5632 5630 5628 5626 5624 5623 5622 5621 5620 5619 5618 5617 5617 5616 5616 5616 5616 5616 5616 5617 5617 5618 5619 5620 5621 5622 5623 5624 5626 5627 5628 5630 5631 5632 5633 5634 5635 5636 5637 5639 5640 5641 5642 5643 5643 5644 5645 5646 5647 5647 5648 5649 5649 5650 5650 5651 5651 5651 5650 5648 5648 5649 5649 5648 5648 5647 5647 5646 5645 5643 5642 5640 5639 5637 5636 5634 5632
5657 5655 5653 5651 5649 5647 5645 5643 5641 5639 5636 5634 5632 5630 5629 5627 5625 5624 5623 5622 5621 5621 5620 5619 5619 5619 5618 5618 5618 5618 5619 5619 5620 5620 5621 5622 5623 5624 5625 5626 5627 5628 5629 5630 5631 5632 5633 5634 5635 5636 5637 5638 5639 5640 5640 5641 5642 5642 5643 5644 5644 5645 5646 5646 5646 5646 5646 5646 5647 5646 5644 5643 5644 5644 5643 5643 5642 5641 5640 5639 5637 5636 5635 5633 5631 5629 5627 5626
5658 5656 5654 5652 5650 5648 5646 5644 5642 5640 5638 5636 5634 5633 5631 5629 5628 5626 5625 5624 5623 5623 5622 5622 5621 5621 5621 5621 5621 5621 5621 5621 5622 5622 5622 5623 5624 5624 5625 5626 5627 5628 5629 5630 5631 5631 5632 5633 5634 5635 5635 5636 5637 5638 5638 5639 5639 5640 5640 5640 5641 5642 5642 5642 5643 5643 5643 5642 5642 5642 5640 5639 5639 5639 5638 5637 5636 5634 5632 5631 5630 5629 5628 5626 5624 5622 5620 5619
5660 5657 5655 5653 5651 5649 5647 5645 5643 5641 5639 5637 5636 5634 5633 5631 5630 5628 5627 5626 5625 5624 5624 5624 5623 5623 5623 5622 5622 5623 5623 5623 5623 5624 5624 5624 5625 5625 5626 5626 5627 5628 5629 5629 5630 5630 5631 5632 5632 5633 5634 5634 5635 5635 5636 5636 5636 5637 5637 5637 5638 5638 5638 5639 5638 5638 5638 5638 5637 5636 5635 5635 5635 5635 5633 5632 5629 5627 5625 5624 5623 5622 5620 5618 5616 5615 5613 5612
5661 5658 5656 5654 5652 5650 5648 5645 5643 5642 5640 5638 5637 5635 5634 5632 5631 5630 5629 5627 5626 5626 5625 5625 5625 5624 5624 5624 5624 5624 5624 5624 5625 5625 5625 5625 5626 5626 5627 5627 5628 5628 5628 5629 5629 5630 5630 5631 5631 5632 5633 5633 5633 5633 5633 5634 5634 5634 5634 5634 5635 5635 5634 5634 5634 5634 5633 5633 5633 5631 5629 5629 5630 5629 5627 5625 5623 5621 5619 5618 5616 5615 5613 5611 5610 5608 5606 5605
5662 5659 5657 5655 5653 5651 5648 5646 5644 5642 5641 5639 5637 5636 5635 5633 5632 5631 5630 5629 5628 5627 5626 5626 5625 5625 5625 5625 5625 5625 5625 5625 5625 5626 5626 5626 5626 5627 5627 5627 5628 5628 5628 5629 5629 5630 5630 5630 5631 5631 5632 5632 5632 5631 5631 5632 5632 5632 5632 5632 5631 5631 5631 5630 5630 5629 5629 5628 5627 5626 5625 5624 5624 5623 5621 5619 5617 5614 5612 5611 5610 5608 5606 5604 5603 5602 5600 5598
5663 5660 5658 5656 5654 5652 5649 5647 5645 5643 5641 5640 5638 5637 5636 5634 5633 5632 5631 5630 5629 5628 5627 5627 5626 5626 5625 5625 5625 5625 5625 5625 5625 5626 5626 5626 5626 5627 5627 5627 5628 5628 5628 5628 5629 5629 5629 5629 5630 5630 5630 5630 5630 5629 5630 5629 5629 5630 5629 5629 5628 5628 5627 5627 5626 5626 5625 5624 5623 5622 5620 5619 5618 5617 5615 5614 5612 5608 5606 5604 5603 5601 5599 5597 5596 5594 5592 5590